Weather History for Grosse Ile, MI

Change the Weather History Date:

Monday, January 27, 2014

  Actual Average (KDTW) Record (KDTW)
Temperature  
Mean Temperature 13 °F 25 °F  
Max Temperature 28 °F 32 °F 61 °F (1916)
Min Temperature -2 °F 19 °F -6 °F (1936)
Degree Days  
Heating Degree Days 52 40  
Month to date heating degree days 1070  
Since 1 July heating degree days 3367  
Cooling Degree Days 0 0  
Month to date cooling degree days 0  
Year to date cooling degree days 0  
Moisture  
Dew Point 0 °F    
Average Humidity 65    
Maximum Humidity 93    
Minimum Humidity 44    
Precipitation  
Precipitation 0.00 in 0.06 in 0.77 in (1944)
Month to date precipitation 1.72  
Year to date precipitation 1.72  
Snow  
Snow 0.00 in 0.40 in 4.30 in (1951)
Month to date snowfall 10.9  
Since 1 July snowfall 22.1  
Snow Depth -    
Sea Level Pressure  
Sea Level Pressure 29.95 in    
Wind  
Wind Speed 14 mph (West)    
Max Wind Speed 20 mph    
Max Gust Speed 34 mph    
Visibility 6 miles    
Events Snow    
T = Trace of Precipitation, MM = Missing Value Source: NWS Daily Summary

Daily Weather History Graph

Daily Weather History Graph

Search for Another Location

Airport:

Trip Planner

Search our weather history database for the weather conditions in past years. The results will help you decide how hot, cold, wet, or windy it might be!

Date:

Astronomy

Jan. 27, 2014 Rise Set
Actual Time 7:50 AM EST 5:40 PM EST
Civil Twilight 7:20 AM EST 6:10 PM EST
Nautical Twilight 6:46 AM EST 6:44 PM EST
Astronomical Twilight 6:13 AM EST 7:17 PM EST
Moon 4:31 AM EST (1/27) 2:25 PM EST (1/27)
Length of Visible Light 10h 50m
Length of Day
9h 50m
Waning Crescent, 15% of the Moon is Illuminated
Jan 27
Waning Crescent
Jan 30
New
Feb 6
First Quarter
Feb 14
Full
Feb 22
Last Quarter

Hourly Weather History & Observations

Time (EST) Temp. Windchill Dew Point Humidity Pressure Visibility Wind Dir Wind Speed Gust Speed Precip Events Conditions
12:14 AM 28.4 °F 17.5 °F 24.8 °F 86% 29.38 in 2.5 mi WSW 13.8 mph 20.7 mph N/A Snow Light Snow
12:34 AM 28.4 °F 15.8 °F 24.8 °F 86% 29.39 in 1.2 mi West 18.4 mph 29.9 mph N/A Snow Light Snow
12:55 AM 24.8 °F 11.5 °F 21.2 °F 86% 29.42 in 0.8 mi NW 17.3 mph 24.2 mph N/A Snow Snow
1:14 AM 23.0 °F 9.2 °F 19.4 °F 86% 29.44 in 0.8 mi WNW 17.3 mph 21.9 mph N/A Snow Snow
1:34 AM 21.2 °F 8.9 °F 17.6 °F 86% 29.45 in 1.2 mi NW 12.7 mph - N/A Snow Light Snow
1:55 AM 19.4 °F 7.9 °F 17.6 °F 93% 29.46 in 1.0 mi WNW 10.4 mph 18.4 mph N/A Snow Snow
2:14 AM 19.4 °F 8.6 °F 17.6 °F 93% 29.49 in 1.0 mi West 9.2 mph - N/A Snow Snow
2:34 AM 19.4 °F 4.1 °F 15.8 °F 86% 29.51 in 1.0 mi WNW 18.4 mph 27.6 mph N/A Snow Snow
2:54 AM 17.6 °F 2.2 °F 12.2 °F 79% 29.55 in 1.0 mi WNW 17.3 mph 27.6 mph N/A Snow Snow
3:14 AM 15.8 °F -0.6 °F 10.4 °F 79% 29.57 in 1.8 mi NW 18.4 mph 34.5 mph N/A Snow Light Snow
3:34 AM 15.8 °F -1.1 °F 8.6 °F 73% 29.59 in 2.5 mi WNW 19.6 mph 27.6 mph N/A Snow Light Snow
3:54 AM 15.8 °F -0.6 °F 6.8 °F 68% 29.63 in 2.0 mi WNW 18.4 mph 34.5 mph N/A Snow Light Snow
4:14 AM 14.0 °F -3.4 °F 3.2 °F 62% 29.65 in 4.0 mi WNW 19.6 mph 26.5 mph N/A   Haze
4:34 AM 14.0 °F -2.5 °F 1.4 °F 57% 29.67 in 10.0 mi WNW 17.3 mph 23.0 mph N/A   Clear
4:54 AM 12.2 °F -4.8 °F 1.4 °F 62% 29.70 in 7.0 mi West 17.3 mph 25.3 mph N/A   Clear
5:14 AM 12.2 °F -3.7 °F 1.4 °F 62% 29.73 in 7.0 mi WNW 15.0 mph 24.2 mph N/A   Scattered Clouds
5:35 AM 12.2 °F -4.3 °F 1.4 °F 62% 29.76 in 5.0 mi WNW 16.1 mph 27.6 mph N/A   Haze
5:54 AM 12.2 °F -1.0 °F 1.4 °F 62% 29.78 in 7.0 mi West 10.4 mph 27.6 mph N/A   Scattered Clouds
6:14 AM 10.4 °F -4.8 °F 1.4 °F 67% 29.80 in 10.0 mi West 12.7 mph 19.6 mph N/A   Scattered Clouds
6:35 AM 10.4 °F -6.6 °F 1.4 °F 67% 29.82 in 10.0 mi West 16.1 mph 21.9 mph N/A   Scattered Clouds
6:54 AM 10.4 °F -4.1 °F 1.4 °F 67% 29.84 in 10.0 mi West 11.5 mph 17.3 mph N/A   Clear
7:14 AM 10.4 °F -4.8 °F 1.4 °F 67% 29.86 in 10.0 mi West 12.7 mph 18.4 mph N/A   Clear
7:35 AM 10.4 °F -4.1 °F -0.4 °F 62% 29.88 in 10.0 mi West 11.5 mph 16.1 mph N/A   Clear
7:54 AM 10.4 °F -5.4 °F 1.4 °F 67% 29.90 in 10.0 mi WNW 13.8 mph 20.7 mph N/A   Clear
8:14 AM 8.6 °F -7.0 °F 3.2 °F 79% 29.92 in 10.0 mi West 12.7 mph 17.3 mph N/A   Clear
8:35 AM 10.4 °F -6.0 °F -4.0 °F 52% 29.93 in 4.0 mi WNW 15.0 mph 31.1 mph N/A   Haze
8:54 AM 8.6 °F -10.0 °F -5.8 °F 52% 29.95 in 7.0 mi WNW 18.4 mph 25.3 mph N/A   Clear
9:14 AM 8.6 °F -5.5 °F -7.6 °F 48% 29.97 in 5.0 mi WNW 10.4 mph 27.6 mph N/A   Haze
9:34 AM 8.6 °F -9.5 °F -7.6 °F 48% 29.98 in 7.0 mi NW 17.3 mph 25.3 mph N/A   Clear
9:54 AM 10.4 °F -7.2 °F -7.6 °F 44% 29.99 in 10.0 mi WNW 17.3 mph 20.7 mph N/A   Clear
10:14 AM 10.4 °F -3.3 °F -7.6 °F 44% 30.00 in 10.0 mi WNW 10.4 mph 20.7 mph N/A   Clear
10:34 AM 10.4 °F -7.7 °F -7.6 °F 44% 30.01 in 5.0 mi WNW 18.4 mph 26.5 mph N/A   Haze
10:54 AM 10.4 °F -4.1 °F -7.6 °F 44% 30.02 in 10.0 mi West 11.5 mph 20.7 mph N/A   Clear
11:14 AM 10.4 °F -6.0 °F -5.8 °F 48% 30.03 in 7.0 mi West 15.0 mph 19.6 mph N/A   Scattered Clouds
11:34 AM 12.2 °F -1.0 °F -5.8 °F 45% 30.04 in 10.0 mi West 10.4 mph 20.7 mph N/A   Mostly Cloudy
11:54 AM 10.4 °F -4.1 °F -5.8 °F 48% 30.04 in 10.0 mi West 11.5 mph 21.9 mph N/A   Mostly Cloudy
12:14 PM 12.2 °F -3.7 °F -5.8 °F 45% 30.04 in 10.0 mi West 15.0 mph - N/A   Scattered Clouds
12:34 PM 12.2 °F -1.8 °F -2.2 °F 53% 30.03 in 10.0 mi WNW 11.5 mph 20.7 mph N/A   Mostly Cloudy
12:55 PM 12.2 °F -3.7 °F -2.2 °F 53% 30.03 in 10.0 mi West 15.0 mph 19.6 mph N/A   Mostly Cloudy
1:14 PM 12.2 °F -5.3 °F -0.4 °F 57% 30.03 in 7.0 mi WSW 18.4 mph 25.3 mph N/A   Mostly Cloudy
1:34 PM 10.4 °F -6.6 °F 1.4 °F 67% 30.03 in 1.0 mi West 16.1 mph 24.2 mph N/A Snow Light Snow
1:55 PM 10.4 °F -4.1 °F 1.4 °F 67% 30.03 in 1.2 mi West 11.5 mph 25.3 mph N/A Snow Light Snow
2:14 PM 12.2 °F -1.0 °F -4.0 °F 48% 30.02 in 7.0 mi WSW 10.4 mph 19.6 mph N/A   Mostly Cloudy
2:34 PM 12.2 °F -3.1 °F -0.4 °F 57% 30.03 in 2.0 mi West 13.8 mph 20.7 mph N/A Snow Light Snow
2:55 PM 12.2 °F -1.8 °F 1.4 °F 62% 30.04 in 7.0 mi WSW 11.5 mph 18.4 mph N/A   Mostly Cloudy
3:14 PM 10.4 °F -6.6 °F 1.4 °F 67% 30.05 in 2.5 mi West 16.1 mph 25.3 mph N/A   Haze
3:34 PM 10.4 °F -5.4 °F 1.4 °F 67% 30.06 in 2.0 mi West 13.8 mph 20.7 mph N/A Snow Light Snow
3:54 PM 10.4 °F -6.6 °F 1.4 °F 67% 30.07 in 2.0 mi West 16.1 mph 21.9 mph N/A Snow Light Snow
4:14 PM 8.6 °F -8.3 °F -0.4 °F 67% 30.08 in 5.0 mi WSW 15.0 mph 19.6 mph N/A   Haze
4:34 PM 8.6 °F -7.7 °F 1.4 °F 73% 30.09 in 2.0 mi WNW 13.8 mph 20.7 mph N/A Snow Light Snow
4:54 PM 8.6 °F -5.5 °F 1.4 °F 73% 30.09 in 5.0 mi West 10.4 mph 18.4 mph N/A   Haze
5:14 PM 8.6 °F -7.0 °F -0.4 °F 67% 30.10 in 10.0 mi West 12.7 mph - N/A   Mostly Cloudy
5:35 PM 8.6 °F -8.3 °F -2.2 °F 62% 30.11 in 4.0 mi West 15.0 mph 23.0 mph N/A Snow Light Snow
5:54 PM 6.8 °F -11.3 °F 1.4 °F 79% 30.12 in 2.0 mi West 16.1 mph 20.7 mph N/A Snow Light Snow
6:14 PM 6.8 °F -7.8 °F -2.2 °F 67% 30.14 in 10.0 mi West 10.4 mph 16.1 mph N/A   Overcast
6:35 PM 6.8 °F -8.6 °F -2.2 °F 67% 30.15 in 7.0 mi West 11.5 mph - N/A   Mostly Cloudy
6:54 PM 6.8 °F -10.7 °F -0.4 °F 72% 30.16 in 2.5 mi West 15.0 mph 18.4 mph N/A Snow Light Snow
7:14 PM 5.0 °F -13.6 °F -0.4 °F 78% 30.17 in 2.5 mi WNW 16.1 mph 25.3 mph N/A Snow Light Snow
7:35 PM 5.0 °F -10.8 °F -5.8 °F 61% 30.18 in 10.0 mi West 11.5 mph 20.7 mph N/A   Mostly Cloudy
7:54 PM 3.2 °F -16.5 °F -7.6 °F 61% 30.20 in 10.0 mi West 17.3 mph 23.0 mph N/A   Scattered Clouds
8:14 PM 3.2 °F -13.9 °F -9.4 °F 56% 30.21 in 10.0 mi West 12.7 mph 19.6 mph N/A   Clear
8:34 PM 3.2 °F -14.6 °F -9.4 °F 56% 30.22 in 10.0 mi West 13.8 mph 25.3 mph N/A   Clear
8:54 PM 1.4 °F -16.1 °F -9.4 °F 61% 30.23 in 7.0 mi West 12.7 mph 25.3 mph N/A   Clear
9:15 PM 1.4 °F -16.1 °F -9.4 °F 61% 30.24 in 10.0 mi West 12.7 mph - N/A   Clear
9:34 PM 1.4 °F -14.5 °F -9.4 °F 61% 30.25 in 10.0 mi West 10.4 mph - N/A   Clear
9:54 PM 1.4 °F -14.5 °F -9.4 °F 61% 30.25 in 10.0 mi West 10.4 mph - N/A   Clear
10:14 PM -0.4 °F -16.7 °F -9.4 °F 66% 30.26 in 10.0 mi West 10.4 mph - N/A   Clear
10:34 PM -0.4 °F -14.7 °F -9.4 °F 66% 30.28 in 10.0 mi West 8.1 mph - N/A   Clear
10:54 PM -0.4 °F -13.4 °F -9.4 °F 66% 30.28 in 10.0 mi West 6.9 mph - N/A   Clear
11:14 PM -0.4 °F -12.0 °F -9.4 °F 66% 30.29 in 10.0 mi WSW 5.8 mph - N/A   Clear
11:34 PM -2.2 °F -16.8 °F -9.4 °F 71% 30.30 in 10.0 mi SW 8.1 mph - N/A   Clear
11:55 PM -2.2 °F -15.6 °F -9.4 °F 71% 30.30 in 10.0 mi WSW 6.9 mph - N/A   Clear